Regional Weather Roundup
Issued by NWS

Home | Current Version | Previous Version | Graphics & Text | Print | Product List | Glossary On
Versions: 1 2 3 4 5 6 7 8 9 10 11 12 13 14 15 16 17 18 19 20 21 22 23 24 25 26 27 28 29 30 31 32 33 34 35 36 37 38 39 40 41 42 43 44 45 46 47 48 49 50
000
ASUS43 KTOP 250059
RWRKS

WEATHER ROUNDUP FOR KANSAS
NATIONAL WEATHER SERVICE GOODLAND KS
800 PM CDT THU JUL 24 2014

NOTE:  "FAIR" INDICATES FEW OR NO CLOUDS BELOW 12,000 FEET WITH NO
SIGNIFICANT WEATHER AND/OR OBSTRUCTIONS TO VISIBILITY.

KSZ001>006-013>018-027>032-041>047-250200-
NORTHWEST KANSAS

CITY           SKY/WX    TMP DP  RH WIND       PRES   REMARKS
GOODLAND       CLOUDY    90  48  23 S10       29.89R
HAYS           PTCLDY    73  66  78 S22G28    29.88S
HILL CITY      MOCLDY    93  68  43 S17G28    29.85R HX  97
RUSSELL        PTCLDY    88  70  55 S18G24    29.88S
$$

KSZ061>065-074>080-084>089-250200-
SOUTHWEST KANSAS

CITY           SKY/WX    TMP DP  RH WIND       PRES   REMARKS
DODGE CITY     PTCLDY    92  60  34 S15       29.92R
ELKHART          N/A     92  55  28 S16         N/A
GARDEN CITY    MOCLDY    90  55  30 S14       29.91S
GREAT BEND     CLEAR     90  72  55 S16G26    29.89S HX  96
LIBERAL        CLEAR     97  52  21 S14       29.95S
$$

KSZ066>073-081>083-090>101-250200-
SOUTHEAST KANSAS

CITY           SKY/WX    TMP DP  RH WIND       PRES   REMARKS
CHANUTE        CLEAR     82  67  60 SE9       29.99R
COFFEYVILLE    CLEAR     85  70  60 S6        29.97S
HUTCHINSON     CLEAR     89  68  49 SE20      29.92F
MEDICINE LODGE   N/A     91  71  51 SE12G20   29.91S HX  97
NEWTON         CLEAR     86  64  48 S14       29.99S
PARSONS        CLEAR     83  67  58 SE3       29.99S
WICHITA INTL   PTCLDY    86  70  58 S13       29.93F
WICHITA JABRA  CLEAR     86  69  56 SE13      29.95R
WINFIELD       CLEAR     85  71  63 SE9       29.96F
$$

KSZ007>012-019>026-033>040-048>060-102>105-250200-
NORTHEAST KANSAS

CITY           SKY/WX    TMP DP  RH WIND       PRES   REMARKS
CONCORDIA      CLEAR     87  68  52 S18       29.89F
EMPORIA        CLEAR     82  67  60 SE12      29.99R
LAWRENCE       CLEAR     79  62  56 SE8       29.99F
MANHATTAN      CLEAR     86  65  49 SE15G22   29.94S
OLATHE IND     CLEAR     80  58  46 SE7       30.02F
OLATHE EXE     CLEAR     78  58  49 SE7       30.00F
SALINA         CLEAR     90  67  46 S21       29.91S
TOPEKA BILLARD CLEAR     84  61  45 SE10      29.98F
TOPEKA FORBES  CLEAR     83  62  49 SE9       29.98F
$$



USA.gov is the U.S. government's official web portal to all federal, state and local government web resources and services.